GORIZONT 30 1 23108U 94030A 21056.26463169 .00000001 00000-0 00000-0 0 9992 2 23108 14.7652 3.4179 0002273 352.5723 257.3314 1.00302820 98026 SL-12 R/B(2) 1 23111U 94030D 21056.05790880 -.00000170 00000-0 00000-0 0 9994 2 23111 13.6879 359.2967 0044668 132.6254 115.8363 1.03839928101536